| time (UTC) | temp C | wind direction | speed KPH | gust KPH | rain 1hr cm | rain 24hr cm | rain mn cm | humidity % | barometer mb |
| 20260509160441 | 15 | 329 | 0.0 | 6.4 | 0.00 | 0.00 | 0.00 | 39 | 1021.2 |
| 20260509155915 | 15 | 285 | 0.0 | 6.4 | 0.00 | 0.00 | 0.00 | 40 | 1021.2 |
| 20260509155354 | 15 | 277 | 0.0 | 4.8 | 0.00 | 0.00 | 0.00 | 42 | 1021.2 |
| 20260509154857 | 15 | 266 | 0.0 | 4.8 | 0.00 | 0.00 | 0.00 | 41 | 1021.1 |
| 20260509154328 | 15 | 306 | 0.0 | 3.2 | 0.00 | 0.00 | 0.00 | 41 | 1021.1 |
| 20260509153827 | 15 | 269 | 0.0 | 3.2 | 0.00 | 0.00 | 0.00 | 42 | 1020.9 |
| 20260509153259 | 15 | 315 | 0.0 | 0.0 | 0.00 | 0.00 | 0.00 | 43 | 1021.0 |
| 20260509153030 | 15 | 332 | 0.0 | 0.0 | 0.00 | 0.00 | 0.00 | 43 | 1020.8 |
| 20260509152503 | 15 | 290 | 0.0 | 1.6 | 0.00 | 0.00 | 0.00 | 48 | 1020.8 |
| 20260509151726 | 14 | 327 | 0.0 | 1.6 | 0.00 | 0.00 | 0.00 | 47 | 1020.8 |
| 20260509151456 | 14 | 351 | 0.0 | 1.6 | 0.00 | 0.00 | 0.00 | 50 | 1020.7 |
| 20260509150953 | 13 | 326 | 0.0 | 3.2 | 0.00 | 0.00 | 0.00 | 48 | 1020.6 |
| 20260509150157 | 13 | 10 | 0.0 | 3.2 | 0.00 | 0.00 | 0.00 | 50 | 1020.5 |
| 20260509145638 | 13 | 29 | 0.0 | 0.0 | 0.00 | 0.00 | 0.00 | 52 | 1020.5 |
| 20260509145132 | 13 | 314 | 0.0 | 1.6 | 0.00 | 0.00 | 0.00 | 54 | 1020.5 |
| 20260509144637 | 13 | 10 | 0.0 | 1.6 | 0.00 | 0.00 | 0.00 | 55 | 1020.4 |
| 20260509144110 | 12 | 329 | 0.0 | 3.2 | 0.00 | 0.00 | 0.00 | 57 | 1020.4 |
| 20260509143546 | 12 | 318 | 0.0 | 3.2 | 0.00 | 0.00 | 0.00 | 57 | 1020.3 |
| 20260509143040 | 12 | 315 | 0.0 | 1.6 | 0.00 | 0.00 | 0.00 | 59 | 1020.3 |
| 20260509142540 | 12 | 250 | 0.0 | 0.0 | 0.00 | 0.00 | 0.00 | 60 | 1020.1 |
| 20260509142030 | 12 | 304 | 0.0 | 0.0 | 0.00 | 0.00 | 0.00 | 62 | 1020.1 |
| 20260509141528 | 12 | 346 | 0.0 | 0.0 | 0.00 | 0.00 | 0.00 | 63 | 1020.0 |
| 20260509141014 | 12 | 277 | 0.0 | 0.0 | 0.00 | 0.00 | 0.00 | 63 | 1019.7 |
| 20260509140452 | 12 | 273 | 0.0 | 4.8 | 0.00 | 0.00 | 0.00 | 64 | 1019.6 |
| 20260509135957 | 11 | 274 | 0.0 | 4.8 | 0.00 | 0.00 | 0.00 | 66 | 1019.5 |
| 20260509135725 | 11 | 41 | 0.0 | 4.8 | 0.00 | 0.00 | 0.00 | 68 | 1019.4 |
| 20260509134955 | 11 | 273 | 0.0 | 4.8 | 0.00 | 0.00 | 0.00 | 70 | 1019.4 |
| 20260509134431 | 11 | 0 | 0.0 | 1.6 | 0.00 | 0.00 | 0.00 | 72 | 1019.4 |
| 20260509133904 | 11 | 26 | 0.0 | 1.6 | 0.00 | 0.00 | 0.00 | 73 | 1019.2 |
| 20260509133407 | 10 | 269 | 0.0 | 1.6 | 0.00 | 0.00 | 0.00 | 72 | 1019.2 |
| 20260509132858 | 11 | 29 | 0.0 | 1.6 | 0.00 | 0.00 | 0.00 | 71 | 1019.2 |
| 20260509132355 | 11 | 281 | 0.0 | 0.0 | 0.00 | 0.00 | 0.00 | 72 | 1019.1 |
| 20260509131853 | 11 | 274 | 0.0 | 0.0 | 0.00 | 0.00 | 0.00 | 73 | 1019.0 |
| 20260509131357 | 11 | 161 | 0.0 | 0.0 | 0.00 | 0.00 | 0.00 | 73 | 1018.9 |
| 20260509130833 | 11 | 252 | 0.0 | 3.2 | 0.00 | 0.00 | 0.00 | 74 | 1018.8 |
| 20260509130606 | 11 | 13 | 0.0 | 3.2 | 0.00 | 0.00 | 0.00 | 74 | 1018.7 |
| 20260509125810 | 11 | 234 | 0.0 | 3.2 | 0.00 | 0.00 | 0.00 | 74 | 1018.7 |
| 20260509125245 | 11 | 256 | 0.0 | 3.2 | 0.00 | 0.00 | 0.00 | 75 | 1018.6 |
| 20260509124738 | 11 | 271 | 0.0 | 3.2 | 0.00 | 0.00 | 0.00 | 75 | 1018.4 |
| 20260509124237 | 11 | 230 | 0.0 | 0.0 | 0.00 | 0.00 | 0.00 | 75 | 1018.4 |
| 20260509123737 | 11 | 231 | 0.0 | 1.6 | 0.00 | 0.00 | 0.00 | 75 | 1018.3 |
| 20260509123235 | 11 | 230 | 0.0 | 1.6 | 0.00 | 0.00 | 0.00 | 75 | 1018.1 |
| 20260509122733 | 11 | 265 | 0.0 | 0.0 | 0.00 | 0.00 | 0.00 | 75 | 1018.1 |
| 20260509122234 | 11 | 274 | 0.0 | 0.0 | 0.00 | 0.00 | 0.00 | 75 | 1018.0 |
| 20260509121935 | 11 | 272 | 0.0 | 12.9 | 0.00 | 0.00 | 0.00 | 75 | 1017.9 |
| 20260509121142 | 11 | 271 | 0.0 | 12.9 | 0.00 | 0.00 | 0.00 | 74 | 1017.7 |
| 20260509120617 | 11 | 225 | 0.0 | 3.2 | 0.00 | 0.00 | 0.00 | 74 | 1017.8 |
| 20260509120101 | 11 | 311 | 0.0 | 3.2 | 0.00 | 0.00 | 0.00 | 73 | 1017.6 |
| 20260509115537 | 11 | 257 | 0.0 | 4.8 | 0.00 | 0.00 | 0.00 | 72 | 1017.4 |
| 20260509115040 | 11 | 271 | 0.0 | 9.7 | 0.00 | 0.00 | 0.00 | 70 | 1017.3 |
| 20260509114529 | 11 | 259 | 0.0 | 9.7 | 0.00 | 0.00 | 0.00 | 69 | 1017.3 |
| 20260509114029 | 11 | 250 | 0.0 | 0.0 | 0.00 | 0.00 | 0.00 | 69 | 1017.3 |
| 20260509113530 | 11 | 235 | 0.0 | 0.0 | 0.00 | 0.00 | 0.00 | 69 | 1017.2 |
| 20260509113010 | 11 | 235 | 0.0 | 0.0 | 0.00 | 0.00 | 0.00 | 69 | 1017.0 |
| 20260509112448 | 11 | 235 | 0.0 | 0.0 | 0.00 | 0.00 | 0.00 | 69 | 1017.0 |
| 20260509111924 | 11 | 235 | 0.0 | 0.0 | 0.00 | 0.00 | 0.00 | 70 | 1016.9 |
| 20260509111357 | 11 | 198 | 0.0 | 0.0 | 0.00 | 0.00 | 0.00 | 70 | 1016.8 |
| 20260509110854 | 11 | 198 | 0.0 | 0.0 | 0.00 | 0.00 | 0.00 | 70 | 1016.8 |
| 20260509110623 | 11 | 198 | 0.0 | 0.0 | 0.00 | 0.00 | 0.00 | 69 | 1016.6 |
| 20260509105824 | 11 | 196 | 0.0 | 0.0 | 0.00 | 0.00 | 0.00 | 69 | 1016.7 |
| 20260509105259 | 11 | 196 | 0.0 | 0.0 | 0.00 | 0.00 | 0.00 | 69 | 1016.6 |
| 20260509105031 | 11 | 196 | 0.0 | 0.0 | 0.00 | 0.00 | 0.00 | 70 | 1016.5 |
| 20260509104244 | 11 | 196 | 0.0 | 0.0 | 0.00 | 0.00 | 0.00 | 69 | 1016.6 |
| 20260509103747 | 11 | 196 | 0.0 | 0.0 | 0.00 | 0.00 | 0.00 | 67 | 1016.5 |
| 20260509103222 | 11 | 196 | 0.0 | 0.0 | 0.00 | 0.00 | 0.00 | 64 | 1016.1 |
| 20260509103217 | 11 | 196 | 0.0 | 0.0 | 0.00 | 0.00 | 0.00 | 65 | 1016.5 |
| 20260509102149 | 11 | 196 | 0.0 | 0.0 | 0.00 | 0.00 | 0.00 | 62 | 1015.9 |
| 20260509101621 | 11 | 196 | 0.0 | 0.0 | 0.00 | 0.00 | 0.00 | 62 | 1016.3 |
| 20260509101110 | 11 | 196 | 0.0 | 0.0 | 0.00 | 0.00 | 0.00 | 62 | 1016.3 |
| 20260509100606 | 11 | 196 | 0.0 | 0.0 | 0.00 | 0.00 | 0.00 | 63 | 1016.3 |
| 20260509100040 | 11 | 196 | 0.0 | 0.0 | 0.00 | 0.00 | 0.00 | 62 | 1016.2 |
| 20260509095813 | 11 | 196 | 0.0 | 0.0 | 0.00 | 0.00 | 0.00 | 60 | 1016.8 |
| 20260509095538 | 11 | 196 | 0.0 | 0.0 | 0.00 | 0.00 | 0.00 | 61 | 1016.6 |
| 20260509094522 | 11 | 196 | 0.0 | 0.0 | 0.00 | 0.00 | 0.00 | 60 | 1016.8 |
| 20260509094024 | 11 | 196 | 0.0 | 0.0 | 0.00 | 0.00 | 0.00 | 59 | 1016.8 |
| 20260509093745 | 11 | 196 | 0.0 | 0.0 | 0.00 | 0.00 | 0.00 | 59 | 1016.7 |
| 20260509093012 | 11 | 196 | 0.0 | 0.0 | 0.00 | 0.00 | 0.00 | 58 | 1016.7 |
| 20260509092714 | 11 | 196 | 0.0 | 0.0 | 0.00 | 0.00 | 0.00 | 56 | 1016.7 |
| 20260509091942 | 11 | 196 | 0.0 | 0.0 | 0.00 | 0.00 | 0.00 | 56 | 1016.5 |
| 20260509091416 | 10 | 196 | 0.0 | 0.0 | 0.00 | 0.00 | 0.00 | 55 | 1016.6 |
| 20260509090920 | 10 | 196 | 0.0 | 0.0 | 0.00 | 0.00 | 0.00 | 54 | 1016.5 |
| 20260509090415 | 10 | 196 | 0.0 | 0.0 | 0.00 | 0.00 | 0.00 | 54 | 1016.4 |
| 20260509085913 | 10 | 196 | 0.0 | 0.0 | 0.00 | 0.00 | 0.00 | 53 | 1016.3 |
| 20260509085348 | 10 | 196 | 0.0 | 0.0 | 0.00 | 0.00 | 0.00 | 53 | 1016.1 |
| 20260509084822 | 11 | 197 | 0.0 | 0.0 | 0.00 | 0.00 | 0.00 | 52 | 1016.4 |
| 20260509084552 | 11 | 197 | 0.0 | 0.0 | 0.00 | 0.00 | 0.00 | 51 | 1016.2 |
| 20260509083820 | 11 | 196 | 0.0 | 0.0 | 0.00 | 0.00 | 0.00 | 51 | 1016.2 |
| 20260509083324 | 11 | 196 | 0.0 | 1.6 | 0.00 | 0.00 | 0.00 | 51 | 1016.1 |
| 20260509082755 | 11 | 196 | 0.0 | 1.6 | 0.00 | 0.00 | 0.00 | 52 | 1016.2 |
| 20260509082232 | 11 | 229 | 0.0 | 1.6 | 0.00 | 0.00 | 0.00 | 49 | 1015.7 |
| 20260509081704 | 11 | 223 | 0.0 | 4.8 | 0.00 | 0.00 | 0.00 | 49 | 1015.3 |
| 20260509081140 | 11 | 212 | 0.0 | 4.8 | 0.00 | 0.00 | 0.00 | 49 | 1015.3 |
| 20260509080610 | 11 | 221 | 0.0 | 1.6 | 0.00 | 0.00 | 0.00 | 48 | 1015.2 |
| 20260509080055 | 11 | 227 | 0.0 | 0.0 | 0.00 | 0.00 | 0.00 | 48 | 1015.2 |
| 20260509075554 | 11 | 220 | 0.0 | 0.0 | 0.00 | 0.00 | 0.00 | 47 | 1015.3 |
| 20260509075042 | 11 | 225 | 0.0 | 0.0 | 0.00 | 0.00 | 0.00 | 47 | 1015.2 |
| 20260509074540 | 11 | 228 | 0.0 | 0.0 | 0.00 | 0.00 | 0.00 | 46 | 1015.0 |
| 20260509074022 | 11 | 214 | 0.0 | 0.0 | 0.00 | 0.00 | 0.00 | 45 | 1014.9 |
| 20260509073520 | 11 | 214 | 0.0 | 0.0 | 0.00 | 0.00 | 0.00 | 45 | 1015.0 |
| 20260509073255 | 11 | 214 | 0.0 | 0.0 | 0.00 | 0.00 | 0.00 | 45 | 1015.0 |
| 20260509072455 | 11 | 214 | 0.0 | 0.0 | 0.00 | 0.00 | 0.00 | 45 | 1015.2 |
| 20260509071954 | 11 | 214 | 0.0 | 0.0 | 0.00 | 0.00 | 0.00 | 45 | 1015.2 |
| 20260509071720 | 11 | 214 | 0.0 | 0.0 | 0.00 | 0.00 | 0.00 | 45 | 1015.3 |
| 20260509070946 | 11 | 214 | 0.0 | 1.6 | 0.00 | 0.00 | 0.00 | 45 | 1015.5 |
| 20260509070420 | 11 | 214 | 0.0 | 3.2 | 0.00 | 0.00 | 0.00 | 44 | 1015.5 |
| 20260509065911 | 11 | 214 | 0.0 | 3.2 | 0.00 | 0.00 | 0.00 | 44 | 1015.4 |
| 20260509065344 | 11 | 189 | 0.0 | 0.0 | 0.00 | 0.00 | 0.00 | 44 | 1015.5 |
| 20260509064841 | 11 | 189 | 0.0 | 0.0 | 0.00 | 0.00 | 0.00 | 44 | 1015.5 |
| 20260509064610 | 11 | 189 | 0.0 | 0.0 | 0.00 | 0.00 | 0.00 | 44 | 1015.6 |
| 20260509064106 | 11 | 189 | 0.0 | 0.0 | 0.00 | 0.00 | 0.00 | 44 | 1015.7 |
| 20260509063948 | 11 | 189 | 0.0 | 1.6 | 0.00 | 0.00 | 0.00 | 44 | 1015.8 |
| 20260509062817 | 11 | 176 | 0.0 | 0.0 | 0.00 | 0.00 | 0.00 | 44 | 1015.9 |
| 20260509062316 | 11 | 159 | 0.0 | 0.0 | 0.00 | 0.00 | 0.00 | 44 | 1015.8 |
| 20260509061809 | 12 | 159 | 0.0 | 0.0 | 0.00 | 0.00 | 0.00 | 43 | 1015.8 |
| 20260509061306 | 12 | 159 | 0.0 | 0.0 | 0.00 | 0.00 | 0.00 | 43 | 1015.9 |
| 20260509060803 | 12 | 159 | 0.0 | 0.0 | 0.00 | 0.00 | 0.00 | 42 | 1015.9 |
| 20260509060301 | 12 | 159 | 0.0 | 0.0 | 0.00 | 0.00 | 0.00 | 42 | 1015.9 |
| 20260509055753 | 12 | 159 | 0.0 | 0.0 | 0.00 | 0.00 | 0.00 | 42 | 1015.9 |
| 20260509055236 | 12 | 159 | 0.0 | 0.0 | 0.00 | 0.00 | 0.00 | 42 | 1015.9 |
| 20260509054734 | 12 | 159 | 0.0 | 0.0 | 0.00 | 0.00 | 0.00 | 41 | 1016.0 |
| 20260509054208 | 12 | 159 | 0.0 | 0.0 | 0.00 | 0.00 | 0.00 | 41 | 1016.2 |
| 20260509053639 | 12 | 159 | 0.0 | 0.0 | 0.00 | 0.00 | 0.00 | 41 | 1016.4 |
| 20260509053138 | 12 | 159 | 0.0 | 0.0 | 0.00 | 0.00 | 0.00 | 41 | 1016.3 |
| 20260509052618 | 12 | 159 | 0.0 | 0.0 | 0.00 | 0.00 | 0.00 | 41 | 1016.4 |
| 20260509052036 | 12 | 159 | 0.0 | 0.0 | 0.00 | 0.00 | 0.00 | 40 | 1016.3 |
| 20260509051535 | 13 | 159 | 0.0 | 0.0 | 0.00 | 0.00 | 0.00 | 40 | 1016.3 |
| 20260509051006 | 13 | 159 | 0.0 | 0.0 | 0.00 | 0.00 | 0.00 | 40 | 1016.4 |
| 20260509050734 | 13 | 159 | 0.0 | 0.0 | 0.00 | 0.00 | 0.00 | 39 | 1016.6 |
| 20260509045938 | 13 | 159 | 0.0 | 0.0 | 0.00 | 0.00 | 0.00 | 39 | 1016.7 |
| 20260509045437 | 13 | 159 | 0.0 | 0.0 | 0.00 | 0.00 | 0.00 | 39 | 1016.7 |
| 20260509045210 | 13 | 159 | 0.0 | 0.0 | 0.00 | 0.00 | 0.00 | 39 | 1016.8 |
| 20260509044642 | 13 | 159 | 0.0 | 0.0 | 0.00 | 0.00 | 0.00 | 39 | 1016.7 |
| 20260509043909 | 13 | 159 | 0.0 | 0.0 | 0.00 | 0.00 | 0.00 | 39 | 1016.8 |
| 20260509043341 | 13 | 159 | 0.0 | 0.0 | 0.00 | 0.00 | 0.00 | 38 | 1016.8 |
| 20260509042840 | 14 | 159 | 0.0 | 0.0 | 0.00 | 0.00 | 0.00 | 38 | 1016.8 |
| 20260509042319 | 14 | 159 | 0.0 | 0.0 | 0.00 | 0.00 | 0.00 | 37 | 1016.9 |
| 20260509041741 | 14 | 159 | 0.0 | 0.0 | 0.00 | 0.00 | 0.00 | 37 | 1016.9 |
| 20260509041442 | 14 | 159 | 0.0 | 0.0 | 0.00 | 0.00 | 0.00 | 36 | 1016.9 |
| 20260509040708 | 15 | 159 | 0.0 | 0.0 | 0.00 | 0.00 | 0.00 | 37 | 1016.8 |
| 20260509040205 | 15 | 159 | 0.0 | 0.0 | 0.00 | 0.00 | 0.00 | 36 | 1016.8 |
| 20260509035704 | 15 | 151 | 0.0 | 0.0 | 0.00 | 0.00 | 0.00 | 36 | 1016.8 |
| 20260509035136 | 15 | 151 | 0.0 | 0.0 | 0.00 | 0.00 | 0.00 | 36 | 1016.9 |
| 20260509034621 | 15 | 151 | 0.0 | 0.0 | 0.00 | 0.00 | 0.00 | 35 | 1016.9 |
| 20260509034120 | 15 | 151 | 0.0 | 0.0 | 0.00 | 0.00 | 0.00 | 35 | 1016.8 |
| 20260509033556 | 15 | 150 | 0.0 | 0.0 | 0.00 | 0.00 | 0.00 | 35 | 1016.9 |
| 20260509033045 | 15 | 150 | 0.0 | 0.0 | 0.00 | 0.00 | 0.00 | 35 | 1016.8 |
| 20260509032544 | 15 | 151 | 0.0 | 0.0 | 0.00 | 0.00 | 0.00 | 34 | 1016.7 |
| 20260509032259 | 16 | 150 | 0.0 | 0.0 | 0.00 | 0.00 | 0.00 | 34 | 1016.7 |
| 20260509031529 | 16 | 177 | 0.0 | 0.0 | 0.00 | 0.00 | 0.00 | 34 | 1016.6 |
| 20260509031004 | 16 | 173 | 0.0 | 0.0 | 0.00 | 0.00 | 0.00 | 34 | 1016.6 |
| 20260509030435 | 16 | 282 | 0.0 | 1.6 | 0.00 | 0.00 | 0.00 | 34 | 1016.5 |
| 20260509025932 | 16 | 282 | 0.0 | 1.6 | 0.00 | 0.00 | 0.00 | 33 | 1016.5 |
| 20260509025429 | 16 | 282 | 0.0 | 1.6 | 0.00 | 0.00 | 0.00 | 33 | 1016.5 |
| 20260509024925 | 17 | 241 | 0.0 | 1.6 | 0.00 | 0.00 | 0.00 | 32 | 1016.5 |
| 20260509024418 | 17 | 184 | 0.0 | 11.3 | 0.00 | 0.00 | 0.00 | 32 | 1016.3 |
| 20260509023849 | 17 | 283 | 0.0 | 11.3 | 0.00 | 0.00 | 0.00 | 32 | 1016.3 |
| 20260509023619 | 17 | 284 | 0.0 | 4.8 | 0.00 | 0.00 | 0.00 | 31 | 1016.2 |
| 20260509022819 | 17 | 316 | 0.0 | 4.8 | 0.00 | 0.00 | 0.00 | 32 | 1016.2 |
| 20260509022315 | 17 | 286 | 0.0 | 4.8 | 0.00 | 0.00 | 0.00 | 31 | 1016.1 |
| 20260509021811 | 17 | 261 | 0.0 | 4.8 | 0.00 | 0.00 | 0.00 | 31 | 1016.0 |
| 20260509021257 | 17 | 240 | 0.0 | 3.2 | 0.00 | 0.00 | 0.00 | 31 | 1015.9 |
| 20260509020745 | 17 | 290 | 0.0 | 3.2 | 0.00 | 0.00 | 0.00 | 30 | 1015.8 |
| 20260509020216 | 18 | 234 | 0.0 | 3.2 | 0.00 | 0.00 | 0.00 | 30 | 1015.7 |
| 20260509015711 | 18 | 231 | 0.0 | 3.2 | 0.00 | 0.00 | 0.00 | 29 | 1015.6 |
| 20260509015147 | 18 | 208 | 0.0 | 1.6 | 0.00 | 0.00 | 0.00 | 29 | 1015.5 |
| 20260509015129 | 18 | 215 | 0.0 | 3.2 | 0.00 | 0.00 | 0.00 | 29 | 1015.5 |
| 20260509014107 | 18 | 220 | 0.0 | 3.2 | 0.00 | 0.00 | 0.00 | 28 | 1015.4 |
| 20260509013607 | 18 | 260 | 0.0 | 3.2 | 0.00 | 0.00 | 0.00 | 27 | 1015.4 |
| 20260509013040 | 18 | 219 | 0.0 | 1.6 | 0.00 | 0.00 | 0.00 | 27 | 1015.3 |
| 20260509012742 | 18 | 200 | 0.0 | 1.6 | 0.00 | 0.00 | 0.00 | 26 | 1015.2 |
| 20260509012241 | 19 | 200 | 0.0 | 3.2 | 0.00 | 0.00 | 0.00 | 26 | 1015.2 |
| 20260509011449 | 19 | 242 | 0.0 | 3.2 | 0.00 | 0.00 | 0.00 | 25 | 1015.0 |
| 20260509010906 | 19 | 5 | 0.0 | 4.8 | 0.00 | 0.00 | 0.00 | 25 | 1015.0 |
| 20260509010407 | 19 | 355 | 0.0 | 4.8 | 0.00 | 0.00 | 0.00 | 25 | 1015.0 |
| 20260509005906 | 20 | 194 | 0.0 | 9.7 | 0.00 | 0.00 | 0.00 | 25 | 1015.0 |
| 20260509005637 | 20 | 260 | 0.0 | 9.7 | 0.00 | 0.00 | 0.00 | 25 | 1014.9 |
| 20260509004910 | 20 | 215 | 0.0 | 16.1 | 0.00 | 0.00 | 0.00 | 25 | 1014.8 |
| 20260509004351 | 20 | 226 | 0.0 | 16.1 | 0.00 | 0.00 | 0.00 | 24 | 1014.8 |
| 20260509003854 | 20 | 226 | 0.0 | 6.4 | 0.00 | 0.00 | 0.00 | 25 | 1014.8 |
| 20260509003350 | 20 | 150 | 0.0 | 6.4 | 0.00 | 0.00 | 0.00 | 25 | 1014.8 |
| 20260509002846 | 20 | 254 | 0.0 | 9.7 | 0.00 | 0.00 | 0.00 | 24 | 1014.8 |
| 20260509002321 | 20 | 246 | 0.0 | 9.7 | 0.00 | 0.00 | 0.00 | 25 | 1014.7 |
| 20260509001754 | 21 | 267 | 0.0 | 6.4 | 0.00 | 0.00 | 0.00 | 25 | 1014.7 |
| 20260509001257 | 21 | 217 | 0.0 | 24.1 | 0.00 | 0.00 | 0.00 | 25 | 1014.8 |
| 20260509000739 | 21 | 274 | 0.0 | 24.1 | 0.00 | 0.00 | 0.00 | 25 | 1014.7 |
| 20260509000242 | 21 | 243 | 0.0 | 6.4 | 0.00 | 0.00 | 0.00 | 25 | 1014.8 |
| 20260508235716 | 21 | 266 | 0.0 | 6.4 | 0.00 | 0.00 | 0.00 | 24 | 1014.7 |
| 20260508235206 | 21 | 290 | 0.0 | 11.3 | 0.00 | 0.00 | 0.00 | 24 | 1014.7 |
| 20260508234705 | 21 | 267 | 0.0 | 11.3 | 0.00 | 0.00 | 0.00 | 24 | 1014.7 |
| 20260508234147 | 22 | 276 | 0.0 | 16.1 | 0.00 | 0.00 | 0.00 | 24 | 1014.8 |
| 20260508233614 | 22 | 251 | 0.0 | 16.1 | 0.00 | 0.00 | 0.00 | 24 | 1014.8 |
| 20260508233324 | 22 | 236 | 0.0 | 6.4 | 0.00 | 0.00 | 0.00 | 25 | 1014.8 |
| 20260508232551 | 22 | 241 | 0.0 | 8.0 | 0.00 | 0.00 | 0.00 | 25 | 1014.8 |
| 20260508232026 | 22 | 242 | 0.0 | 8.0 | 0.00 | 0.00 | 0.00 | 24 | 1014.8 |
| 20260508231516 | 22 | 46 | 0.0 | 11.3 | 0.00 | 0.00 | 0.00 | 25 | 1014.8 |
| 20260508231015 | 22 | 232 | 0.0 | 11.3 | 0.00 | 0.00 | 0.00 | 23 | 1014.9 |
| 20260508230514 | 23 | 242 | 0.0 | 12.9 | 0.00 | 0.00 | 0.00 | 24 | 1014.9 |
| 20260508225952 | 23 | 220 | 0.0 | 19.3 | 0.00 | 0.00 | 0.00 | 23 | 1014.9 |
| 20260508225456 | 23 | 148 | 1.6 | 20.9 | 0.00 | 0.00 | 0.00 | 22 | 1014.8 |
| 20260508224953 | 23 | 236 | 0.0 | 20.9 | 0.00 | 0.00 | 0.00 | 22 | 1014.8 |
| 20260508224456 | 23 | 232 | 0.0 | 8.0 | 0.00 | 0.00 | 0.00 | 23 | 1014.9 |
| 20260508223935 | 23 | 273 | 0.0 | 8.0 | 0.00 | 0.00 | 0.00 | 24 | 1014.8 |
| 20260508223333 | 23 | 229 | 0.0 | 20.9 | 0.00 | 0.00 | 0.00 | 24 | 1014.8 |
| 20260508223329 | 23 | 240 | 0.0 | 1.6 | 0.00 | 0.00 | 0.00 | 23 | 1014.8 |
| 20260508222308 | 23 | 248 | 0.0 | 12.9 | 0.00 | 0.00 | 0.00 | 22 | 1014.8 |
| 20260508222014 | 23 | 180 | 0.0 | 8.0 | 0.00 | 0.00 | 0.00 | 23 | 1014.8 |
| 20260508221218 | 23 | 263 | 0.0 | 8.0 | 0.00 | 0.00 | 0.00 | 23 | 1014.9 |
| 20260508220709 | 23 | 271 | 0.0 | 8.0 | 0.00 | 0.00 | 0.00 | 23 | 1015.0 |
| 20260508220154 | 23 | 236 | 0.0 | 12.9 | 0.00 | 0.00 | 0.00 | 24 | 1015.0 |
| 20260508215924 | 22 | 277 | 0.0 | 6.4 | 0.00 | 0.00 | 0.00 | 23 | 1015.0 |
| 20260508215432 | 22 | 266 | 0.0 | 9.7 | 0.00 | 0.00 | 0.00 | 24 | 1015.3 |
| 20260508215155 | 22 | 67 | 1.6 | 20.9 | 0.00 | 0.00 | 0.00 | 23 | 1015.2 |
| 20260508214645 | 22 | 265 | 1.6 | 20.9 | 0.00 | 0.00 | 0.00 | 23 | 1015.3 |
| 20260508213645 | 22 | 269 | 0.0 | 9.7 | 0.00 | 0.00 | 0.00 | 23 | 1015.3 |
| 20260508213108 | 22 | 200 | 0.0 | 6.4 | 0.00 | 0.00 | 0.00 | 23 | 1015.4 |
| 20260508212816 | 22 | 218 | 0.0 | 6.4 | 0.00 | 0.00 | 0.00 | 23 | 1015.5 |
| 20260508212041 | 22 | 196 | 0.0 | 3.2 | 0.00 | 0.00 | 0.00 | 23 | 1015.5 |
| 20260508211752 | 22 | 214 | 0.0 | 3.2 | 0.00 | 0.00 | 0.00 | 22 | 1015.6 |
| 20260508211018 | 22 | 181 | 0.0 | 12.9 | 0.00 | 0.00 | 0.00 | 22 | 1015.6 |
| 20260508210520 | 22 | 221 | 0.0 | 12.9 | 0.00 | 0.00 | 0.00 | 21 | 1015.7 |
| 20260508205941 | 22 | 210 | 0.0 | 9.7 | 0.00 | 0.00 | 0.00 | 21 | 1015.8 |
| 20260508205436 | 23 | 248 | 0.0 | 4.8 | 0.00 | 0.00 | 0.00 | 21 | 1015.8 |
| 20260508204933 | 23 | 221 | 0.0 | 4.8 | 0.00 | 0.00 | 0.00 | 21 | 1015.9 |
| 20260508204407 | 23 | 237 | 0.0 | 8.0 | 0.00 | 0.00 | 0.00 | 22 | 1016.0 |
| 20260508203843 | 23 | 242 | 0.0 | 8.0 | 0.00 | 0.00 | 0.00 | 21 | 1016.1 |
| 20260508203618 | 23 | 250 | 0.0 | 6.4 | 0.00 | 0.00 | 0.00 | 21 | 1016.2 |
| 20260508203118 | 22 | 286 | 0.0 | 4.8 | 0.00 | 0.00 | 0.00 | 21 | 1016.4 |
| 20260508202842 | 22 | 198 | 0.0 | 4.8 | 0.00 | 0.00 | 0.00 | 22 | 1016.3 |
| 20260508201834 | 22 | 223 | 0.0 | 12.9 | 0.00 | 0.00 | 0.00 | 22 | 1016.4 |
| 20260508201308 | 23 | 267 | 0.0 | 12.9 | 0.00 | 0.00 | 0.00 | 20 | 1016.5 |
| 20260508200807 | 23 | 196 | 0.0 | 4.8 | 0.00 | 0.00 | 0.00 | 21 | 1016.7 |
| 20260508200246 | 23 | 222 | 0.0 | 3.2 | 0.00 | 0.00 | 0.00 | 21 | 1016.7 |
| 20260508195741 | 23 | 228 | 0.0 | 8.0 | 0.00 | 0.00 | 0.00 | 21 | 1016.8 |
| 20260508195442 | 23 | 219 | 0.0 | 8.0 | 0.00 | 0.00 | 0.00 | 23 | 1016.8 |
| 20260508194944 | 22 | 244 | 0.0 | 14.5 | 0.00 | 0.00 | 0.00 | 21 | 1017.0 |
| 20260508194147 | 22 | 225 | 0.0 | 6.4 | 0.00 | 0.00 | 0.00 | 23 | 1017.1 |
| 20260508193647 | 22 | 240 | 0.0 | 6.4 | 0.00 | 0.00 | 0.00 | 23 | 1017.2 |
| 20260508193148 | 22 | 198 | 0.0 | 12.9 | 0.00 | 0.00 | 0.00 | 22 | 1017.3 |
| 20260508192648 | 22 | 277 | 0.0 | 12.9 | 0.00 | 0.00 | 0.00 | 23 | 1017.4 |
| 20260508192144 | 22 | 248 | 0.0 | 6.4 | 0.00 | 0.00 | 0.00 | 23 | 1017.4 |
| 20260508191643 | 22 | 211 | 0.0 | 4.8 | 0.00 | 0.00 | 0.00 | 22 | 1017.3 |
| 20260508191138 | 22 | 153 | 0.0 | 12.9 | 0.00 | 0.00 | 0.00 | 22 | 1017.4 |
| 20260508190906 | 22 | 190 | 0.0 | 17.7 | 0.00 | 0.00 | 0.00 | 21 | 1017.6 |
| 20260508190108 | 22 | 255 | 0.0 | 4.8 | 0.00 | 0.00 | 0.00 | 20 | 1017.6 |
| 20260508185558 | 23 | 296 | 0.0 | 4.8 | 0.00 | 0.00 | 0.00 | 20 | 1017.4 |
| 20260508185057 | 23 | 170 | 0.0 | 9.7 | 0.00 | 0.00 | 0.00 | 19 | 1017.6 |
| 20260508184529 | 23 | 241 | 0.0 | 9.7 | 0.00 | 0.00 | 0.00 | 20 | 1017.6 |
| 20260508184256 | 23 | 252 | 1.6 | 17.7 | 0.00 | 0.00 | 0.00 | 19 | 1017.7 |
| 20260508183459 | 22 | 284 | 1.6 | 17.7 | 0.00 | 0.00 | 0.00 | 20 | 1017.7 |
| 20260508183454 | 22 | 304 | 0.0 | 6.4 | 0.00 | 0.00 | 0.00 | 20 | 1017.8 |
| 20260508182431 | 22 | 266 | 1.6 | 14.5 | 0.00 | 0.00 | 0.00 | 20 | 1017.9 |
| 20260508181929 | 22 | 244 | 1.6 | 14.5 | 0.00 | 0.00 | 0.00 | 21 | 1018.0 |
| 20260508181403 | 22 | 257 | 0.0 | 16.1 | 0.00 | 0.00 | 0.00 | 20 | 1018.2 |
| 20260508181105 | 23 | 235 | 0.0 | 16.1 | 0.00 | 0.00 | 0.00 | 19 | 1018.2 |
| 20260508180333 | 23 | 257 | 0.0 | 9.7 | 0.00 | 0.00 | 0.00 | 20 | 1018.3 |
| 20260508175816 | 22 | 232 | 0.0 | 9.7 | 0.00 | 0.00 | 0.00 | 20 | 1018.3 |
| 20260508175317 | 22 | 241 | 0.0 | 16.1 | 0.00 | 0.00 | 0.00 | 22 | 1018.4 |
| 20260508174752 | 21 | 240 | 0.0 | 16.1 | 0.00 | 0.00 | 0.00 | 21 | 1018.6 |
| 20260508174726 | 21 | 250 | 1.6 | 19.3 | 0.00 | 0.00 | 0.00 | 22 | 1018.7 |
| 20260508173656 | 21 | 217 | 1.6 | 19.3 | 0.00 | 0.00 | 0.00 | 21 | 1018.8 |
| 20260508173155 | 22 | 214 | 0.0 | 1.6 | 0.00 | 0.00 | 0.00 | 22 | 1018.9 |
| 20260508172637 | 22 | 255 | 0.0 | 11.3 | 0.00 | 0.00 | 0.00 | 22 | 1019.0 |
| 20260508172141 | 21 | 258 | 0.0 | 11.3 | 0.00 | 0.00 | 0.00 | 22 | 1019.0 |
| 20260508171612 | 21 | 212 | 0.0 | 6.4 | 0.00 | 0.00 | 0.00 | 22 | 1019.1 |
| 20260508171111 | 21 | 219 | 0.0 | 6.4 | 0.00 | 0.00 | 0.00 | 23 | 1019.2 |
| 20260508171045 | 21 | 301 | 0.0 | 6.4 | 0.00 | 0.00 | 0.00 | 23 | 1019.2 |
| 20260508170039 | 20 | 222 | 0.0 | 4.8 | 0.00 | 0.00 | 0.00 | 25 | 1019.5 |
| 20260508165536 | 20 | 234 | 0.0 | 27.4 | 0.00 | 0.00 | 0.00 | 23 | 1019.5 |
| 20260508165250 | 20 | 225 | 0.0 | 4.8 | 0.00 | 0.00 | 0.00 | 24 | 1019.5 |
| 20260508164719 | 20 | 262 | 0.0 | 1.6 | 0.00 | 0.00 | 0.00 | 24 | 1019.7 |
| 20260508163944 | 20 | 301 | 0.0 | 6.4 | 0.00 | 0.00 | 0.00 | 24 | 1019.7 |
| 20260508163443 | 20 | 256 | 0.0 | 6.4 | 0.00 | 0.00 | 0.00 | 25 | 1019.8 |
| 20260508162917 | 19 | 236 | 0.0 | 6.4 | 0.00 | 0.00 | 0.00 | 28 | 1019.7 |
| 20260508162632 | 18 | 194 | 0.0 | 0.0 | 0.00 | 0.00 | 0.00 | 30 | 1020.0 |
| 20260508162129 | 18 | 219 | 0.0 | 0.0 | 0.00 | 0.00 | 0.00 | 32 | 1020.0 |
| 20260508161356 | 17 | 219 | 0.0 | 0.0 | 0.00 | 0.00 | 0.00 | 33 | 1020.1 |